Daggett-Barstow, CA

2:08 AM PDT on August 21, 2017 (GMT -0700)
Barstow-Daggett

Weather History for KDAG - August, 2013

Change the Weather History Date:

Friday, August 23, 2013

  Actual Average Record
Temperature  
Mean Temperature 88 °F 86 °F  
Max Temperature 102 °F 102 °F 111 °F (1998)
Min Temperature 75 °F 71 °F 58 °F (1948)
Degree Days  
Heating Degree Days 0    
Cooling Degree Days 24    
Growing Degree Days 38 (Base 50)    
Moisture  
Dew Point 50 °F    
Average Humidity 27    
Maximum Humidity 35    
Minimum Humidity 14    
Precipitation  
Precipitation 0.00 in 0.01 in 0.23 in (1955)
Month to date precipitation 0.21  
Year to date precipitation 2.71  
Sea Level Pressure  
Sea Level Pressure 29.74 in    
Wind  
Wind Speed 7 mph (North)    
Max Wind Speed 26 mph    
Max Gust Speed 36 mph    
Visibility 10 miles    
Events Thunderstorm    
T = Trace of Precipitation, MM = Missing Value Source: NWS Daily Summary

Daily Weather History Graph

Daily Weather History Graph

Search for Another Location

Airport or City:

Trip Planner

Search our weather history database for the weather conditions in past years. The results will help you decide how hot, cold, wet, or windy it might be!

Date:

Astronomy

Aug. 23, 2013 Rise Set
Actual Time 6:13 AM PDT 7:25 PM PDT
Civil Twilight 5:47 AM PDT 7:51 PM PDT
Nautical Twilight 5:16 AM PDT 8:22 PM PDT
Astronomical Twilight 4:43 AM PDT 8:54 PM PDT
Moon 8:57 PM PDT (8/23) 9:04 AM PDT (8/23)
Length of Visible Light 14h 03m
Length of Day
13h 11m
Waning Gibbous, 91% of the Moon is Illuminated
Aug 23
Waning Gibbous
Aug 28
Last Quarter
Sep 5
New
Sep 12
First Quarter
Sep 19
Full

Hourly Weather History & Observations

Time (PDT) Temp. Heat Index Dew Point Humidity Pressure Visibility Wind Dir Wind Speed Gust Speed Precip Events Conditions
12:50 AM 84.0 °F - 37.9 °F 19% 29.80 in 10.0 mi Calm Calm - N/A   Clear
1:50 AM 81.0 °F - 50.0 °F 34% 29.79 in 10.0 mi WSW 9.2 mph - N/A   Clear
2:50 AM 81.0 °F - 41.0 °F 24% 29.79 in 10.0 mi WSW 5.8 mph - N/A   Clear
3:50 AM 75.9 °F - 43.0 °F 31% 29.80 in 10.0 mi Calm Calm - N/A   Clear
4:50 AM 78.1 °F - 45.0 °F 31% 29.80 in 10.0 mi WSW 4.6 mph - N/A   Clear
5:50 AM 75.0 °F - 45.0 °F 34% 29.79 in 10.0 mi NNW 3.5 mph - N/A   Clear
6:50 AM 75.9 °F - 45.0 °F 33% 29.80 in 10.0 mi West 6.9 mph - N/A   Clear
7:50 AM 81.0 °F - 44.1 °F 27% 29.81 in 10.0 mi WNW 3.5 mph - N/A   Clear
8:50 AM 84.0 °F 82.6 °F 54.0 °F 35% 29.81 in 10.0 mi NNW 3.5 mph - N/A   Clear
9:50 AM 88.0 °F 86.1 °F 55.0 °F 32% 29.80 in 10.0 mi NNE 3.5 mph - N/A   Clear
10:50 AM 91.0 °F 90.5 °F 60.1 °F 35% 29.79 in 10.0 mi Calm Calm - N/A   Clear
11:50 AM 96.1 °F 95.6 °F 59.0 °F 29% 29.76 in 10.0 mi NE 8.1 mph - N/A   Clear
12:50 PM 99.0 °F 97.7 °F 55.9 °F 24% 29.73 in 10.0 mi NE 12.7 mph 17.3 mph N/A   Clear
1:50 PM 100.0 °F 98.3 °F 55.0 °F 22% 29.71 in 10.0 mi North 9.2 mph - N/A   Clear
2:50 PM 100.9 °F - 52.0 °F 19% 29.67 in 10.0 mi NNE 8.1 mph 23.0 mph N/A   Clear
3:16 PM 102.2 °F - 51.8 °F 18% 29.74 in 10.0 mi NE 19.6 mph 25.3 mph N/A Thunderstorm Clear
3:31 PM 100.4 °F 99.7 °F 57.2 °F 24% 29.74 in 10.0 mi East 19.6 mph 26.5 mph N/A   Clear
3:50 PM 98.1 °F 97.2 °F 57.9 °F 26% 29.66 in 10.0 mi NNE 16.1 mph 29.9 mph N/A   Clear
3:59 PM 96.8 °F 95.8 °F 57.2 °F 27% 29.75 in 10.0 mi NNW 13.8 mph 25.3 mph N/A   Clear
4:21 PM 96.8 °F 95.8 °F 57.2 °F 27% 29.75 in 10.0 mi East 26.5 mph 35.7 mph N/A   Clear
4:50 PM 95.0 °F 93.7 °F 57.0 °F 28% 29.67 in 10.0 mi East 16.1 mph 25.3 mph N/A   Clear
5:50 PM 95.0 °F 92.7 °F 54.0 °F 25% 29.66 in 10.0 mi ESE 20.7 mph 27.6 mph N/A   Clear
6:50 PM 90.0 °F 88.1 °F 55.9 °F 31% 29.66 in 10.0 mi East 10.4 mph - N/A   Clear
7:50 PM 88.0 °F 86.1 °F 55.0 °F 32% 29.66 in 10.0 mi ESE 5.8 mph - N/A   Clear
8:50 PM 86.0 °F 84.2 °F 54.0 °F 33% 29.69 in 10.0 mi NE 3.5 mph - N/A   Clear
9:50 PM 90.0 °F - 37.9 °F 16% 29.70 in 10.0 mi NW 17.3 mph 23.0 mph N/A   Clear
10:50 PM 84.9 °F - 30.9 °F 14% 29.73 in 10.0 mi WNW 13.8 mph - N/A   Clear
11:50 PM 81.0 °F - 34.0 °F 18% 29.74 in 10.0 mi WNW 10.4 mph - N/A   Clear